EN

Hourly Weather Almeria

Today, 22 January, Friday

Time Temperature Precipitation Wind Pressure Humidity
00:00 +12°C° 0 mm 7 mps 761 mmHg 73%
01:00 +12°C° 0 mm 8 mps 761 mmHg 73%
02:00 +12°C° 0 mm 9 mps 760 mmHg 73%
03:00 +12°C° 0 mm 10 mps 760 mmHg 73%
04:00 +12°C° 0 mm 10 mps 759 mmHg 75%
05:00 +12°C° 0 mm 10 mps 759 mmHg 78%
06:00 +12°C° 0 mm 11 mps 759 mmHg 80%
07:00 +13°C° 0 mm 11 mps 759 mmHg 79%
08:00 +14°C° 0 mm 11 mps 759 mmHg 77%
09:00 +16°C° 0 mm 11 mps 759 mmHg 76%
10:00 +17°C° 0 mm 12 mps 759 mmHg 69%
11:00 +18°C° 0 mm 12 mps 759 mmHg 62%
12:00 +19°C° 0 mm 12 mps 759 mmHg 55%
13:00 +19°C° 0 mm 12 mps 759 mmHg 51%
14:00 +19°C° 0 mm 12 mps 758 mmHg 48%
15:00 +19°C° 0 mm 12 mps 758 mmHg 44%
16:00 +17°C° 0 mm 11 mps 759 mmHg 49%
17:00 +16°C° 0 mm 9 mps 760 mmHg 55%
18:00 +13°C° 0 mm 8 mps 760 mmHg 60%
19:00 +14°C° 0 mm 7 mps 761 mmHg 61%
20:00 +13°C° 0 mm 6 mps 761 mmHg 63%
21:00 +13°C° 0 mm 5 mps 762 mmHg 64%
22:00 +12°C° 0 mm 5 mps 762 mmHg 64%
23:00 +12°C° 0 mm 5 mps 762 mmHg 64%

Tomorrow, 23 January, Saturday

Time Temperature Precipitation Wind Pressure Humidity
00:00 +12°C° 0 mm 4 mps 762 mmHg 63%
01:00 +12°C° 0 mm 4 mps 762 mmHg 64%
02:00 +11°C° 0 mm 4 mps 762 mmHg 65%
03:00 +11°C° 0 mm 4 mps 762 mmHg 66%
04:00 +11°C° 0 mm 4 mps 762 mmHg 63%
05:00 +10°C° 0 mm 4 mps 762 mmHg 61%
06:00 +10°C° 0 mm 4 mps 762 mmHg 59%
07:00 +11°C° 0 mm 4 mps 762 mmHg 57%
08:00 +11°C° 0 mm 4 mps 763 mmHg 56%
09:00 +12°C° 0 mm 4 mps 763 mmHg 54%
10:00 +13°C° 0 mm 4 mps 763 mmHg 51%
11:00 +14°C° 0 mm 5 mps 762 mmHg 48%
12:00 +15°C° 0 mm 5 mps 762 mmHg 45%
13:00 +16°C° 0 mm 5 mps 762 mmHg 47%
14:00 +16°C° 0 mm 5 mps 761 mmHg 48%
15:00 +16°C° 0 mm 5 mps 761 mmHg 50%
16:00 +15°C° 0 mm 5 mps 761 mmHg 57%
17:00 +14°C° 0 mm 6 mps 760 mmHg 63%
18:00 +13°C° 0 mm 6 mps 760 mmHg 70%
19:00 +12°C° 0 mm 7 mps 760 mmHg 71%
20:00 +12°C° 0 mm 7 mps 760 mmHg 72%
21:00 +12°C° 0 mm 8 mps 760 mmHg 73%
22:00 +12°C° 0 mm 9 mps 760 mmHg 74%
23:00 +12°C° 0 mm 10 mps 759 mmHg 75%

Day after tomorrow, 24 January, Sunday

Time Temperature Precipitation Wind Pressure Humidity
00:00 +12°C° 0 mm 10 mps 759 mmHg 77%
01:00 +12°C° 0 mm 10 mps 758 mmHg 77%
02:00 +12°C° 0 mm 11 mps 757 mmHg 78%
03:00 +13°C° 0 mm 11 mps 757 mmHg 78%
04:00 +13°C° 0 mm 11 mps 757 mmHg 79%
05:00 +13°C° 0 mm 10 mps 757 mmHg 80%
06:00 +13°C° 0 mm 10 mps 757 mmHg 81%
07:00 +13°C° 0 mm 9 mps 758 mmHg 79%
08:00 +15°C° 0 mm 9 mps 758 mmHg 77%
09:00 +16°C° 0 mm 8 mps 759 mmHg 76%
10:00 +17°C° 0 mm 8 mps 759 mmHg 67%
11:00 +18°C° 0 mm 7 mps 759 mmHg 59%
12:00 +20°C° 0 mm 7 mps 759 mmHg 51%
13:00 +20°C° 0 mm 7 mps 759 mmHg 52%
14:00 +20°C° 0 mm 7 mps 759 mmHg 53%
15:00 +20°C° 0 mm 7 mps 759 mmHg 53%
16:00 +19°C° 0 mm 6 mps 759 mmHg 57%
17:00 +16°C° 0 mm 6 mps 759 mmHg 61%
18:00 +15°C° 0 mm 6 mps 759 mmHg 65%
19:00 +15°C° 0 mm 5 mps 759 mmHg 63%
20:00 +15°C° 0 mm 4 mps 760 mmHg 61%
21:00 +16°C° 0 mm 3 mps 760 mmHg 59%
22:00 +14°C° 0 mm 3 mps 760 mmHg 58%
23:00 +14°C° 0 mm 3 mps 760 mmHg 58%

25 January, Monday

Time Temperature Precipitation Wind Pressure Humidity
00:00 +14°C° 0 mm 3 mps 760 mmHg 58%
01:00 +14°C° 0 mm 3 mps 761 mmHg 59%
02:00 +14°C° 0 mm 3 mps 761 mmHg 60%
03:00 +13°C° 0 mm 3 mps 761 mmHg 61%
04:00 +13°C° 0 mm 3 mps 761 mmHg 64%
05:00 +14°C° 0 mm 2 mps 761 mmHg 66%
06:00 +13°C° 0 mm 2 mps 761 mmHg 69%
07:00 +14°C° 0 mm 2 mps 762 mmHg 71%
08:00 +15°C° 0 mm 2 mps 762 mmHg 72%
09:00 +15°C° 0 mm 2 mps 763 mmHg 74%
10:00 +16°C° 0 mm 3 mps 763 mmHg 71%
11:00 +17°C° 0 mm 3 mps 763 mmHg 69%
12:00 +17°C° 0 mm 3 mps 763 mmHg 66%
13:00 +17°C° 0 mm 3 mps 763 mmHg 67%
14:00 +17°C° 0 mm 3 mps 763 mmHg 68%
15:00 +17°C° 0 mm 3 mps 762 mmHg 70%
16:00 +17°C° 0 mm 2 mps 763 mmHg 75%
17:00 +16°C° 0 mm 1 mps 763 mmHg 80%
18:00 +15°C° 0 mm 1 mps 764 mmHg 86%
19:00 +15°C° 0 mm 1 mps 764 mmHg 86%
20:00 +14°C° 0 mm 1 mps 765 mmHg 86%
21:00 +14°C° 0 mm 1 mps 765 mmHg 86%
22:00 +14°C° 0 mm 1 mps 765 mmHg 86%
23:00 +13°C° 0 mm 0 mps 766 mmHg 86%

26 January, Tuesday

Time Temperature Precipitation Wind Pressure Humidity
00:00 +13°C° 0 mm 0 mps 766 mmHg 86%
01:00 +14°C° 0 mm 1 mps 766 mmHg 85%
02:00 +14°C° 0 mm 1 mps 765 mmHg 84%
03:00 +14°C° 0 mm 1 mps 765 mmHg 83%
04:00 +14°C° 0 mm 1 mps 765 mmHg 83%
05:00 +13°C° 0 mm 1 mps 765 mmHg 83%
06:00 +13°C° 0 mm 1 mps 765 mmHg 83%
07:00 +15°C° 0 mm 1 mps 766 mmHg 80%
08:00 +16°C° 0 mm 1 mps 766 mmHg 76%
09:00 +18°C° 0 mm 1 mps 767 mmHg 73%
10:00 +18°C° 0 mm 2 mps 767 mmHg 69%
11:00 +19°C° 0 mm 2 mps 767 mmHg 65%
12:00 +20°C° 0 mm 2 mps 767 mmHg 61%
13:00 +20°C° 0 mm 2 mps 766 mmHg 62%
14:00 +20°C° 0 mm 3 mps 766 mmHg 62%
15:00 +20°C° 0 mm 3 mps 766 mmHg 63%
16:00 +19°C° 0 mm 3 mps 766 mmHg 68%
17:00 +18°C° 0 mm 3 mps 766 mmHg 74%
18:00 +17°C° 0 mm 3 mps 766 mmHg 79%
19:00 +17°C° 0 mm 2 mps 767 mmHg 79%
20:00 +17°C° 0 mm 2 mps 767 mmHg 78%
21:00 +17°C° 0 mm 2 mps 767 mmHg 77%
22:00 +17°C° 0 mm 2 mps 767 mmHg 78%
23:00 +17°C° 0 mm 2 mps 767 mmHg 79%

27 January, Wednesday

Time Temperature Precipitation Wind Pressure Humidity
00:00 +16°C° 0 mm 2 mps 767 mmHg 79%
01:00 +16°C° 0 mm 2 mps 767 mmHg 80%
02:00 +16°C° 0 mm 2 mps 767 mmHg 81%
03:00 +16°C° 0 mm 1 mps 767 mmHg 81%
04:00 +16°C° 0 mm 1 mps 766 mmHg 82%
05:00 +16°C° 0 mm 1 mps 766 mmHg 83%
06:00 +15°C° 0 mm 1 mps 766 mmHg 84%
07:00 +16°C° 0 mm 1 mps 767 mmHg 80%
08:00 +18°C° 0 mm 1 mps 767 mmHg 76%
09:00 +20°C° 0 mm 1 mps 767 mmHg 72%
10:00 +20°C° 0 mm 1 mps 767 mmHg 68%
11:00 +21°C° 0 mm 1 mps 767 mmHg 65%
12:00 +22°C° 0 mm 1 mps 767 mmHg 61%
13:00 +22°C° 0 mm 1 mps 766 mmHg 62%
14:00 +22°C° 0 mm 1 mps 766 mmHg 63%
15:00 +22°C° 0 mm 1 mps 766 mmHg 63%
16:00 +21°C° 0 mm 1 mps 766 mmHg 70%
17:00 +20°C° 0 mm 1 mps 766 mmHg 76%
18:00 +19°C° 0 mm 1 mps 766 mmHg 82%
19:00 +19°C° 0 mm 1 mps 766 mmHg 81%
20:00 +19°C° 0 mm 1 mps 767 mmHg 81%
21:00 +19°C° 0 mm 1 mps 767 mmHg 81%
22:00 +18°C° 0 mm 1 mps 767 mmHg 81%
23:00 +17°C° 0 mm 2 mps 767 mmHg 81%
Show more